Regional Weather Roundup
Issued by NWS

Home | Current Version | Previous Version | Text Only | Print | Product List | Glossary Off
Versions: 1 2 3 4 5 6 7 8 9 10 11 12 13 14 15 16 17 18 19 20 21 22 23 24 25 26 27 28 29 30 31 32 33 34 35 36 37 38 39 40 41 42 43 44 45 46 47 48 49 50

985
ASUS45 KABQ 302001
RWRNM
NEW MEXICO REGIONAL WEATHER ROUNDUP
NATIONAL WEATHER SERVICE ALBUQUERQUE NM
200 PM MDT MON MAY 30 2016

NOTE: "FAIR" MEANS FEW OR NO CLOUDS BELOW 12,000 FEET AGL WITH NO
       SIGNIFICANT WEATHER OR OBSTRUCTIONS TO VISION.

      THIS PRODUCT IS RELEASED AS TWO VERSIONS.  ONE VERSION NEAR
      THE TOP OF THE HOUR CONTAINING PRELIMINARY DATA FROM ALBUQUERQUE
      AND OTHER STATIONS.  A FINAL VERSION WITH ADDITIONAL DATA IS
      ISSUED ABOUT 10 MINUTES AFTER THE HOUR.

NMZ501-503-504-510>518-302100-
NORTHWEST PLATEAU/NORTHCENTRAL MOUNTAINS

CITY           SKY/WX    TMP DP  RH WIND       PRES   REMARKS
FARMINGTON     FAIR      78  12   8 VRB5      30.04F
SANTA FE       FAIR      78  17  10 VRB3G21   30.09F
TAOS           FAIR      72  19  14 SW15G21   30.14F
ANGEL FIRE     FAIR      66  23  19 W16G23    30.21S

$$
NMZ402-403-502-505>509-302100-
WESTCENTRAL MOUNTAINS/SOUTHWEST MOUNTAINS

CITY           SKY/WX    TMP DP  RH WIND       PRES   REMARKS
GALLUP         FAIR      74  15  10 S9G17     30.12F
GRANTS         FAIR      77  21  12 W10G20    30.12F
SILVER CITY    LGT RAIN  75  37  25 NW15G30   30.08F

$$
NMZ407-409-411-412-302100-
SOUTHERN DESERTS

CITY           SKY/WX    TMP DP  RH WIND       PRES   REMARKS
LORDSBURG      CLOUDY    72  54  53 NW5G17    29.99F
DEMING         FAIR      83  41  22 W20G25    29.98F
HOLLOMAN AFB   FAIR      89  36  15 VRB7      29.95F
ALAMOGORDO     FAIR      84  37  18 SW6       29.98F
T OR C         LGT RAIN  82  34  17 SW9G28    29.99F

$$
NMZ519>523-302100-
CENTRAL VALLEYS/CENTRAL HIGHLANDS

CITY           SKY/WX    TMP DP  RH WIND       PRES   REMARKS
ALBUQUERQUE    PTSUNNY   82  22  11 VRB3      30.05F
DOUBLE EAGLE   PTSUNNY   79  41  25 SW10      30.09F
CLINES CORNERS FAIR      75  21  13 W13       30.13F
BELEN          FAIR      81  22  11 S7        30.03F
SOCORRO        NOT AVBL

$$
NMZ524>526-539-540-302100-
SOUTHCENTRAL MOUNTAINS

CITY           SKY/WX    TMP DP  RH WIND       PRES   REMARKS
RUIDOSO        NOT AVBL

$$
NMZ527>531-302100-
NORTHEAST HIGHLANDS/NORTHEAST PLAINS

CITY           SKY/WX    TMP DP  RH WIND       PRES   REMARKS
LAS VEGAS      FAIR      73  23  15 S15G26    30.10F
RATON          FAIR      75  39  27 S10       30.05F
CLAYTON        FAIR      80  51  36 S20G25    30.01F

$$
NMZ532>537-302100-
EASTCENTRAL PLAINS

CITY           SKY/WX    TMP DP  RH WIND       PRES   REMARKS
TUCUMCARI      FAIR      87  47  24 S15       29.97F
CANNON AFB     FAIR      82  55  39 SW10G18   30.03F
CLOVIS AIRPORT FAIR      82  54  36 S12G21    30.03F

$$
NMZ028-029-538-302100-
SOUTHEAST PLAINS

CITY           SKY/WX    TMP DP  RH WIND       PRES   REMARKS
ROSWELL        FAIR      80  53  39 S13       30.00F
ARTESIA        FAIR      79  55  44 VRB7      29.99F THUNDER
CARLSBAD       FAIR      79  58  48 S14G24    29.97F
HOBBS          SUNNY     82  57  42 SE9       30.02F


$$




USA.gov is the U.S. government's official web portal to all federal, state and local government web resources and services.